www.pogodaiklimat.ru

Погода и климат >> Архив погоды >> Индия >> Digha


ПОГОДА в Digha

  • Прогноз погоды в Digha
  • Монитор погоды в Digha
  • Климат города

АРХИВ ПОГОДЫ в Digha

Время (UTC), дата Ветер
(напр.,м/с)
 
Видим.   Явления Облачность Т
(С)
Тd
(С)
f
(%)
Тe
(С)
Тes
(С)
Комфортность P
(гПа)
Po
(гПа)
Тmin
(С)
Tmax
(С)
R
(мм)
R24
(мм)
S
(см)
12 17.04 Ю 2 4000 м гроза без осадков 9/5 600 м
[Cb cap Ac As Ci sp]
+31.8 +27.7 79 +51 +52 опасность
перегрева
1004.5 1005.0 +34.9
15 17.04 З 2 4000 м {гроза, дождь} 4/4 600 м
[Sc diur, vesp]
+29.8 +20.1 56 +36 +36 очень
душно
1007.3 1007.0 0.0
18 17.04 ЮВ 1 4000 м {гроза, дождь} 3/3 600 м
[Sc diur, vesp]
+28.8 +22.6 69 +38 +38 очень
душно
1007.8 1008.0 0.0
21 17.04 Ю 1 4000 м 5/5 600 м
[Sc diur, vesp]
+28.4 +24.1 78 +40 +40 очень
душно
1007.8 1008.0 0.0
00 18.04 Ю 1 4000 м 6/6 600 м
[Sc diur, vesp]
+28.0 +25.2 85 +41 +41 опасность
перегрева
1007.6 1008.0 0.0
03 18.04 ЮВ 1 4000 м 1/1 600 м
[Sc]
+31.4 +25.8 72 +46 +58 опасность
перегрева
1009.4 1009.0 +27.0 0.0
06 18.04 Ю 2 4000 м 5/4 600 м
[Sc diur, vesp Ac trans]
+34.4 +27.3 67 +53 +66 опасность
перегрева
1008.8 1009.0
09 18.04 Ю 2 4000 м 5/3 600 м
[Sc diur, vesp Ac trans]
+34.4 +27.6 68 +54 +62 опасность
перегрева
1005.8 1006.0
12 18.04 ЮЗ 2 4000 м 8/5 600 м
[Sc Ac trans]
+31.0 +27.1 80 +49 +49 опасность
перегрева
1004.5 1005.0 +34.6
15 18.04 С 2 4000 м гроза без осадков {дождь} 9/3 600 м
[Cb cap Ac As]
+27.8 +21.9 70 +36 +36 очень
душно
1004.5 1005.0 0.0
18 18.04 ЮЗ 5 4000 м {гроза, дождь} 6/4 600 м
[Sc Ac trans]
+28.8 +24.5 78 +41 +41 опасность
перегрева
1005.5 1006.0 0.0
21 18.04 Ю 4 4000 м 4/3 600 м
[Sc Ac trans]
+28.6 +25.2 82 +42 +42 опасность
перегрева
1005.3 1005.0 0.0
00 19.04 З 5 4000 м 4/4 600 м
[Sc]
+28.4 +25.6 85 +42 +42 опасность
перегрева
1005.1 1005.0 0.0
03 19.04 З 3 4000 м 4/3 600 м
[Sc diur, vesp Ac trans]
+30.6 +26.4 78 +47 +53 опасность
перегрева
1006.7 1007.0 +26.3 0.0
06 19.04 Ю 4 4000 м ясно +32.4 +26.0 69 +48 +62 опасность
перегрева
1006.2 1006.0
09 19.04 Ю 2 4000 м 8/5 600 м
[Sc diur, vesp Ci fib]
+34.2 +27.9 70 +55 +60 опасность
перегрева
1004.0 1004.0
12 19.04 Ю 2 4000 м 5/5 600 м
[Sc diur, vesp]
+31.0 +27.1 80 +49 +49 опасность
перегрева
1003.2 1003.0 +34.5
15 19.04 Ю 2 4000 м 1/1 600 м
[Sc]
+29.4 +26.3 83 +45 +45 опасность
перегрева
1003.8 1004.0
18 19.04 Ю 2 4000 м 3/3 600 м
[Sc]
+29.0 +27.1 90 +46 +46 опасность
перегрева
1004.5 1005.0
21 19.04 ЮЗ 2 4000 м 4/3 600 м
[Sc Ac trans]
+28.8 +26.6 88 +45 +45 опасность
перегрева
1004.3 1004.0
00 20.04 ЮЗ 2 4000 м 6/4 600 м
[Sc Ac trans]
+28.8 +26.0 85 +43 +43 опасность
перегрева
1004.5 1005.0
03 20.04 ЮЗ 2 4000 м 4/3 600 м
[Sc diur, vesp Ac trans]
+31.4 +27.8 81 +51 +58 опасность
перегрева
1006.7 1007.0 +27.8
06 20.04 Ю 3 4000 м 6/5 600 м
[Sc diur, vesp Ac trans]
+33.6 +28.2 73 +55 +63 опасность
перегрева
1006.4 1006.0
09 20.04 Ю 3 4000 м 4/3 600 м
[Sc diur, vesp Ac trans]
+34.0 +27.4 69 +53 +60 опасность
перегрева
1004.5 1005.0
12 20.04 Ю 2 4000 м 1/1 600 м
[Sc]
+31.0 +28.0 84 +51 +51 опасность
перегрева
1003.4 1003.0 +34.1
15 20.04 Ю 4 4000 м 3/3 600 м
[Sc diur, vesp]
+29.6 +27.1 86 +47 +47 опасность
перегрева
1005.3 1005.0
18 20.04 Ю 3 4000 м 4/4 600 м
[Sc]
+29.2 +27.3 90 +47 +47 опасность
перегрева
1005.1 1005.0
21 20.04 ЮЗ 3 4000 м 5/3 600 м
[Sc Ac trans]
+29.2 +27.0 88 +46 +46 опасность
перегрева
1004.4 1004.0
00 21.04 Ю 5 4000 м 5/4 600 м
[Sc Ac trans]
+29.0 +26.8 88 +45 +45 опасность
перегрева
1003.8 1004.0
03 21.04 Ю 3 4000 м 8/4 600 м
[Sc Ac trans]
+30.8 +27.2 81 +49 +52 опасность
перегрева
1005.7 1006.0 +28.2
06 21.04 Ю 4 4000 м 1/1 600 м
[Sc diur, vesp]
+33.2 +28.0 74 +54 +68 опасность
перегрева
1005.3 1005.0
09 21.04 Ю 3 4000 м 3/3 600 м
[Sc diur, vesp]
+33.6 +28.5 75 +56 +63 опасность
перегрева
1003.0 1003.0
12 21.04 Ю 4 4000 м 6/4 600 м
[Sc diur, vesp Ac trans]
+30.4 +27.7 86 +50 +50 опасность
перегрева
1002.2 1002.0 +34.3
15 21.04 Ю 3 4000 м 8/5 600 м
[Sc diur, vesp Ac trans]
+29.6 +27.4 88 +48 +48 опасность
перегрева
1004.8 1005.0
18 21.04 Ю 2 4000 м 9/6 600 м
[Sc diur, vesp Ac trans]
+29.4 +27.2 88 +47 +47 опасность
перегрева
1005.5 1006.0
21 21.04 Ю 2 4000 м 8/5 600 м
[Sc diur, vesp Ac trans]
+29.2 +27.0 88 +46 +46 опасность
перегрева
1005.1 1005.0
00 22.04 Ю 2 4000 м 8/4 600 м
[Sc Ac trans]
+29.0 +26.8 88 +45 +45 опасность
перегрева
1005.3 1005.0
03 22.04 Ю 1 4000 м 9/5 600 м
[Sc diur, vesp Ac trans]
+30.4 +28.5 90 +52 +55 опасность
перегрева
1007.7 1008.0 +24.5
06 22.04 Ю 2 4000 м 9/5 600 м
[Sc diur, vesp Ac trans]
+32.4 +28.3 79 +54 +60 опасность
перегрева
1007.8 1008.0
09 22.04 ЮЗ 2 4000 м 6/4 600 м
[Sc Ac trans]
+34.0 +28.0 71 +55 +61 опасность
перегрева
1005.3 1005.0
12 22.04 ЮЗ 2 4000 м 8/3 600 м
[Sc Ac trans]
+31.0 +28.0 84 +51 +51 опасность
перегрева
1003.7 1004.0 +34.4
15 22.04 штиль 0 4000 м 9/5 600 м
[Sc diur, vesp Ac trans]
+30.0 +26.9 84 +47 +47 опасность
перегрева
1006.3 1006.0
18 22.04 ЮВ 1 4000 м 8/5 600 м
[Sc diur, vesp Ac trans]
+29.4 +25.4 79 +43 +43 опасность
перегрева
1006.7 1007.0
21 22.04 ЮЗ 1 4000 м 6/3 600 м
[Sc diur, vesp Ac trans]
+29.0 +25.9 83 +43 +43 опасность
перегрева
1006.7 1007.0
00 23.04 ЮЗ 2 4000 м 6/3 600 м
[Sc diur, vesp Ac trans]
+28.8 +26.3 86 +44 +44 опасность
перегрева
1007.0 1007.0
03 23.04 ЮЗ 2 4000 м 8/4 600 м
[Sc diur, vesp Ac trans]
+31.0 +27.7 83 +51 +55 опасность
перегрева
1009.0 1009.0 +27.9
06 23.04 Ю 2 4000 м 5/4 600 м
[Sc diur, vesp Ac trans]
+33.4 +27.9 73 +54 +66 опасность
перегрева
1008.6 1009.0
09 23.04 ЮВ 2 4000 м 5/5 600 м
[Sc diur, vesp]
+34.0 +27.4 69 +53 +60 опасность
перегрева
1005.5 1006.0
12 23.04 Ю 3 4000 м гроза без осадков 9/6 600 м
[Cb cap Ac As]
+30.8 +26.9 80 +48 +48 опасность
перегрева
1005.1 1005.0 +34.6
15 23.04 СЗ 1 4000 м {гроза, дождь} 5/5 600 м
[Sc diur, vesp]
+29.0 +25.6 82 +43 +43 опасность
перегрева
1008.1 1008.0 0.0
18 23.04 С 1 4000 м {гроза, дождь} 8/5 600 м
[Sc diur, vesp Ac trans]
+28.2 +24.2 79 +39 +39 очень
душно
1006.0 1006.0 0.0
21 23.04 З 1 4000 м 6/4 600 м
[Sc diur, vesp Ac trans]
+27.6 +23.5 78 +37 +37 очень
душно
1006.8 1007.0 0.0
00 24.04 З 1 4000 м 9/4 600 м
[Sc diur, vesp Ac As]
+26.8 +23.0 80 +36 +36 очень
душно
1007.5 1008.0 0.0
03 24.04 З 1 4000 м 5/1 600 м
[Sc diur, vesp Ac trans]
+29.4 +23.3 70 +40 +49 очень
душно
1008.4 1008.0 +25.5 0.0
06 24.04 Ю 1 4000 м 5/1 600 м
[Sc Ac trans]
+32.8 +24.9 63 +46 +63 опасность
перегрева
1007.8 1008.0
09 24.04 Ю 1 4000 м ясно +34.4 +26.4 63 +51 +67 опасность
перегрева
1005.1 1005.0

 

Местоположение метеостанции Digha (West Bengal, Индия): широта 21.62 долгота 87.50 высота над уровнем моря 6 м.

В архиве по умолчанию представлена погода в Digha за последнюю неделю. Архивные данные за месяц целиком и за предыдущие месяцы, начиная с января 2011 года, Вы можете получить, выбрав интересующий диапазон дат из раскрывающегося списка и нажав кнопку "Ввод!".


*Определитесь, кто Вы:
робот инопланетянин человек

Внимание! Время в таблицах - всемирное. Для получения местного времени необходимо прибавить поправку, которая в Digha равна 5.5 ч.

Смотрите также архив погоды в соседних городах и на ближайших метеорологических станциях:

Погода в Contai (West Bengal, Индия) (31 км)
Погода в Balasore (Orissa, Индия) (60 км)
Погода в Haldia (West Bengal, Индия) (73 км)
Погода в Baripada (Orissa, Индия) (83 км)
Погода в Midnapore (West Bengal, Индия) (91 км)
Погода в Diamond Harbour (West Bengal, Индия) (95 км)
Погода в Uluberia (West Bengal, Индия) (108 км)
Погода в Chandbali (Orissa, Индия) (123 км)
Погода в Kolkata (West Bengal, Индия) (133 км)
Погода в Canning (West Bengal, Индия) (140 км)

Пояснения к столбцам:

Ветер - указаны скорость ветра в м/с - средняя за 10 мин, порывы в срок и между сроками (в фигурных скобках) и направление, откуда дует ветер: С - северный, СВ - северо-восточный, В - восточный, ЮВ - юго-восточный, Ю - южный, ЮЗ - юго-западный, З - западный, СЗ - северо-западный.
Видимость - горизонтальная дальность видимости в метрах или километрах. При видимости от 1 до 10 км при отсутствии осадков обычно наблюдается дымка, при ухудшении видимости до 1 км и менее - туман. В сухую погоду видимость может ухудшаться дымом, пылью или мглою.
Явления - указаны атмосферные явления, наблюдавшиеся в срок или в последний час перед сроком; фигурными скобками обозначены явления, наблюдавшиеся между сроками (за 1-3 часа до срока); квадратными скобками обозначены град или гололедные отложения с указанием их диаметра в мм.
Облачность - указаны через наклонную черту общая и нижняя облачность в баллах и высота нижней границы облаков в метрах; квадратными скобками обозначены формы облаков: Ci - перистые, Cs - перисто-слоистые, Cc - перисто-кучевые, Ac - высококучевые, As - высокослоистые, Sc - слоисто-кучевые, Ns - слоисто-дождевые, Cu - кучевые, Cb - кучево-дождевые. Подробнее классификацию облаков см. в Атласе облаков (PDF).
T - Температура воздуха - температура, измеренная на высоте 2 м над землей.
Td - Температура точки росы - температура, при понижении до которой содержащийся в воздухе водяной пар достигнет насыщения.
f - Относительная влажность воздуха - влажноcть воздуха, измеренная на высоте 2 м над землей.
Te - Эффективная температура - температура, которую ощущает одетый по сезону человек в тени. Характеристика душности погоды. При расчете учитывается влияние влажности воздуха и скорости ветра на теплоощущения человека.
Tes - Эффективная температура на солнце - температура, которую ощущает человек, с поправкой на солнечный нагрев. Характеристика знойности погоды. Зависит от высоты солнца над горизонтом, облачности и скорости ветра. Ночью, в пасмурную погоду, а также при ветре 12 м/с и более поправка равна нулю.
P - Атмосферное давление - приведенное к уровню моря атмосферное давление.
Po - Атмосферное давление - измеренное на уровне метеостанции атмосферное давление.
Tmin - Минимальная температура - минимум температуры воздуха на высоте 2 м над землей.
Tmax - Максимальная температура - максимум температуры воздуха на высоте 2 м над землей.
R - Количество осадков - Количество выпавших осадков за период времени, мм. При наведении курсора мыши на число - период времени, за который выпало указанное количество осадков.
R24 - Количество осадков - Количество выпавших осадков за 24 часа, мм.
S - Снежный покров - Высота снежного покрова, см. При наведении курсора мыши на число - состояние снежного покрова и степень покрытия местности в баллах.